Theta_e
345 344 344 345 346 344 342 340 340 338 338 338 337 336 334 335 336 335 332 331 332 332
343 342 343 341 341 341 340 338 337 335 334 333 333 332 331 330 328 326 326 325 324 322
342 340 339 339 338 337 336 335 333 332 330 326 322 318 316 314 314 312 312 314 314 314
336 336 336 335 334 334 332 331 331 326 320 315 310 309 308 307 307 306 305 306 308 310
333 332 332 331 329 325 321 319 314 313 310 308 306 305 304 303 303 302 301 302 304 305
323 323 321 317 315 313 311 310 310 308 305 305 304 303 303 302 302 301 300 300 302 305
317 314 314 313 312 310 310 307 303 302 302 301 301 301 300 299 299 299 300 303 305 303
313 312 312 311 309 309 308 305 302 300 299 299 299 300 298 298 299 301 302 305 305 306
312 310 309 307 306 305 304 301 299 298 297 295 297 297 300 300 299 301 301 302 306 303
309 307 306 305 304 302 300 298 296 295 294 293 294 296 297 300 298 298 298 299 299 298
307 306 305 303 301 301 299 297 296 294 293 293 295 296 296 298 295 296 297 296 295 296
305 303 302 301 301 300 299 299 297 294 292 291 292 295 295 294 293 293 294 296 296 295
305 304 301 301 300 298 298 298 298 295 293 295 291 294 294 293 292 291 293 294 295 298
303 302 301 300 299 299 298 297 296 294 291 291 291 292 293 294 291 291 292 296 297 296
Wind_Speed
15 7 8 9 7 6 4 5 5 7 7 7 6 5 5 4 4 4 4 4 4 2
11 12 9 8 7 7 9 8 9 9 8 6 6 5 6 6 6 7 7 6 6 4
12 13 12 11 11 12 10 11 11 9 9 8 8 9 10 8 8 10 6 5 6 5
12 13 12 13 12 12 10 10 12 10 9 10 10 8 9 9 7 8 6 6 6 6
15 13 13 14 12 11 12 11 12 13 12 11 10 8 9 9 6 6 7 6 6 5
14 14 15 15 13 14 14 12 12 13 11 10 8 9 6 6 5 5 5 4 5 5
15 15 15 14 13 14 12 13 13 12 11 9 8 7 5 4 5 5 5 6 7 7
16 16 16 14 13 13 13 13 12 11 9 8 8 6 6 6 6 7 8 6 6 6
16 17 14 13 12 14 13 12 11 10 10 8 6 9 10 7 6 6 5 4 3 6
17 16 12 11 12 12 12 11 11 9 8 7 6 13 13 11 6 5 5 5 6 5
16 15 12 11 11 10 10 11 9 8 6 8 9 14 12 11 7 6 7 7 6 6
14 14 11 11 11 9 10 8 8 7 8 10 9 13 12 8 5 6 6 5 5 5
13 12 12 11 10 5 9 8 7 8 7 12 8 11 11 7 3 6 4 3 3 7
13 12 11 10 8 7 7 8 8 9 6 7 7 8 10 10 5 3 3 4 4 4
Wind_Direction
171 156 147 158 158 117 118 108 104 99 91 95 103 112 111 94 82 95 80 72 58 46
148 138 128 111 107 112 107 109 104 100 102 94 85 85 89 76 63 56 45 42 53 51
121 121 122 118 115 113 115 114 108 103 98 87 75 74 71 66 51 64 37 38 52 32
117 117 116 113 114 113 109 109 104 104 84 75 69 63 76 70 53 61 47 26 28 26
111 115 112 108 107 103 95 90 94 88 85 81 74 68 69 67 56 55 41 23 17 357
104 105 104 103 102 99 98 95 88 88 85 79 73 71 69 69 58 45 37 22 15 29
104 103 101 97 100 93 96 95 89 82 82 82 76 65 57 57 51 40 34 40 65 71
107 101 94 93 89 91 89 88 86 91 84 71 61 41 40 46 45 41 53 67 85 80
106 98 96 94 91 88 86 88 90 81 75 61 56 35 46 62 49 39 59 61 109 79
102 97 96 94 91 88 95 98 89 82 83 69 53 41 45 52 50 44 39 55 65 57
99 99 95 89 85 91 103 103 101 98 86 70 47 45 45 59 55 53 61 71 63 55
104 99 95 94 105 106 103 105 103 104 90 76 52 50 50 57 49 60 68 64 60 51
96 99 102 108 111 100 105 110 109 95 83 84 66 46 48 51 61 61 54 41 34 33
94 99 104 100 105 111 113 110 101 96 81 73 63 41 42 42 47 41 34 36 14 9